C/1996 R3

T 1995 July 20.29330 TT                                 Nakano

q   5.2075563            (2000.0)            P               Q

                   Peri.  130.14634     +0.56446825     +0.82153037

                   Node   172.70900     -0.80595258     +0.52746593

e   1.0            Incl.   39.30821     +0.17837049     -0.21648914

From 12 observations 1996 Sept. 12-Oct. 30.

Residuals in seconds of arc 

1996/                     960914 566  0.6+  0.0     960915 566  0.3+  1.1-  

960912 691  1.7-  0.7-    960914 566  0.0   0.4+    960915 566  1.1+  0.0   

960913 809  0.1-  0.7+    960914 566 (3.4+  5.4-)   961012 809  1.5+  3.2-  

960914 809  0.3-  0.5+    960914 566  0.4-  1.0+    961018 809  1.2-  2.0+  

960914 566 (3.2+ 15.2-)   960915 566  0.3+  0.1-    961030 809  0.2-  0.5+  



NAKANO

         **** Don't distribute anyone except personal use only ****

                (C) Copyright 2004 OAA/ComputingSection

write mail from CFAD0::NAKANO on 2004-02-22 01:35:38(JST).

 





–ß‚è‚Ü‚·B